DELTA 1 DEB, 7150

Orbit data source: Space-Track

DELTA 1 DEB, 7150 is space debris in SSO originally from a launch on Tue, 06 Nov 1973 UTC launched from the Air Force Western Test Range (AFWTR). Debris objects in space refer to the collection of defunct objects orbiting the Earth. Examples of debris include non-operational satellites, rocket bodies, and fragments generated from explosions, collisions, or faulty payload assembly.

Loading next visibility...
Identifier
7150, 1973-086DQ
Orbit
SSO
Country
Flag of USUS
Related business
Manufacturer
Unknown
Mission
Spacecraft
Bus & Motor
Unknown
Mass
Unknown
Launch date (UTC)
1973-11-06 (53 years ago)
Launch vehicle
Unknown
Launch site
Air Force Western Test Range (AFWTR)
Object type
Payload
Rocket body
Debris
Shape & HBR
Unknown shape, 0.2 m
Radar Cross Section
Medium (>0.1 m² and <1 m²)

Expand to show TLE details & history
Last TLE update: 14 hours ago

TLE from 14 hours ago
0 DELTA 1 DEB
1  7150U 73086DQ  26209.17577382  .00000530  00000-0  49772-2 0  9995
2  7150 101.8865 172.4391 0123689 188.9054 290.7137 12.26350060352133
Epoch: 2026-07-28T04:13Z
TLE epoch observation values (Epoch: 2026-07-28T04:13:06.858Z)
Latitude
59.59998°
Longitude
4.22892°
Altitude
1,541.236 km
Speed
7.116 km/s
True Right ascension
00h 53m 25s
True Declination
59° 27' 52"
Sunlit
Object was in daylight at epoch
Visualization orbit readout
Latitude
Unknown
Longitude
Unknown
Altitude
Unknown
Speed
Unknown
Apparent Right ascension
Unknown
Apparent Declination
Unknown
Sunlit
N/A
Visualization observer readout
Local Sidereal Time
07:32:59
Azimuth
Unknown
Elevation
Unknown
Doppler factor
Unknown
Orbital elements
Apogee altitude
1,660.806 km
Perigee altitude
1,464.37 km
Semi-major axis
7,940.725 km
Eccentricity
0.01237
Inclination
101.8865°
RAAN
172.4391°
Arg. of periapsis
188.9054°
True anomaly
289.38078°
Mean anomaly
290.7137°
Eccentric anomaly
290.04796°
Mean motion
3.06728 °/min
Orbital period
117.37 mins
BSTAR
0.0049772
Loading maneuver chart data...
Computing Atmospheric mass density...
Loading historical data...
Loading historical data...
Loading historical data...
Loading historical data...
Loading historical data...
Loading historical data...
Loading historical data...

Documentation

Showing up to 5 results
|